Time,TemperatureF,DewpointF,PressureIn,WindDirection,WindDirectionDegrees,WindSpeedMPH,WindSpeedGustMPH,Humidity,HourlyPrecipIn,Conditions,Clouds,dailyrainin,SoftwareType,DateUTC
2013-09-01 00:00:00,69.1,67.9,29.84,NW,315,0.0,0.0,96,0.00,RA,,0.00,WeatherDisplay:10.37,2013-09-01 04:00:00,
2013-09-01 00:05:00,69.3,67.2,29.84,NW,315,0.0,0.0,93,0.00,RA,,0.00,WeatherDisplay:10.37,2013-09-01 04:05:00,
2013-09-01 00:10:00,69.2,67.1,29.84,NW,315,0.0,0.0,93,0.00,CLR,,0.00,WeatherDisplay:10.37,2013-09-01 04:10:00,
2013-09-01 00:15:00,69.1,67.0,29.84,NW,315,0.0,0.0,93,0.00,CLR,,0.00,WeatherDisplay:10.37,2013-09-01 04:15:00,
2013-09-01 00:20:00,69.2,67.1,29.84,NW,315,0.0,0.0,93,0.00,CLR,,0.00,WeatherDisplay:10.37,2013-09-01 04:20:00,
2013-09-01 00:25:00,69.3,67.1,29.84,NW,315,0.0,0.0,93,0.00,CLR,,0.00,WeatherDisplay:10.37,2013-09-01 04:25:00,
2013-09-01 00:30:00,69.3,67.2,29.84,NW,315,0.0,0.0,93,0.00,CLR,,0.00,WeatherDisplay:10.37,2013-09-01 04:30:00,
2013-09-01 00:35:00,69.1,67.0,29.84,NW,307,0.0,3.0,93,0.00,CLR,,0.00,WeatherDisplay:10.37,2013-09-01 04:35:00,
2013-09-01 00:40:00,69.4,67.3,29.84,WNW,288,0.0,0.0,93,0.00,CLR,,0.00,WeatherDisplay:10.37,2013-09-01 04:40:00,
2013-09-01 00:45:00,69.1,67.0,29.84,West,277,0.0,0.0,93,0.00,CLR,,0.00,WeatherDisplay:10.37,2013-09-01 04:45:00,
2013-09-01 00:50:00,69.0,66.9,29.84,West,277,0.0,0.0,93,0.00,CLR,,0.00,WeatherDisplay:10.37,2013-09-01 04:50:00,
2013-09-01 00:55:00,68.8,66.7,29.84,West,277,0.0,0.0,93,0.00,CLR,,0.00,WeatherDisplay:10.37,2013-09-01 04:55:00,
2013-09-01 01:00:00,68.8,66.7,29.84,West,277,0.0,0.0,93,0.00,CLR,,0.00,WeatherDisplay:10.37,2013-09-01 05:00:00,
2013-09-01 01:05:00,68.8,66.7,29.83,West,277,0.0,0.0,93,0.00,FEW,,0.00,WeatherDisplay:10.37,2013-09-01 05:05:00,
2013-09-01 01:10:00,68.6,66.5,29.83,West,277,0.0,0.0,93,0.00,FEW,,0.00,WeatherDisplay:10.37,2013-09-01 05:10:00,
2013-09-01 01:15:00,68.7,66.6,29.83,West,277,0.0,0.0,93,0.00,FEW,,0.00,WeatherDisplay:10.37,2013-09-01 05:15:00,
2013-09-01 01:20:00,68.6,66.5,29.83,West,277,0.0,0.0,93,0.00,FEW,,0.00,WeatherDisplay:10.37,2013-09-01 05:20:00,
2013-09-01 01:25:00,68.7,66.6,29.83,West,277,0.0,0.0,93,0.00,FEW,,0.00,WeatherDisplay:10.37,2013-09-01 05:25:00,
2013-09-01 01:30:00,68.5,66.4,29.83,West,277,0.0,0.0,93,0.00,FEW,,0.00,WeatherDisplay:10.37,2013-09-01 05:30:00,
2013-09-01 01:40:00,68.5,66.4,29.83,West,277,0.0,0.0,93,0.00,FEW,,0.00,WeatherDisplay:10.37,2013-09-01 05:40:00,
2013-09-01 01:45:00,68.3,66.2,29.83,West,277,0.0,0.0,93,0.00,FEW,,0.00,WeatherDisplay:10.37,2013-09-01 05:45:00,
2013-09-01 01:50:00,68.3,66.2,29.84,West,277,0.0,0.0,93,0.00,FEW,,0.00,WeatherDisplay:10.37,2013-09-01 05:50:00,
2013-09-01 02:00:00,68.1,66.0,29.83,West,277,0.0,0.0,93,0.00,FEW,,0.00,WeatherDisplay:10.37,2013-09-01 06:00:00,
2013-09-01 02:05:00,68.2,67.0,29.84,West,277,0.0,0.0,96,0.00,CLR,,0.00,WeatherDisplay:10.37,2013-09-01 06:05:00,
2013-09-01 02:10:00,68.3,67.1,29.84,West,277,0.0,0.0,96,0.00,CLR,,0.00,WeatherDisplay:10.37,2013-09-01 06:10:00,
2013-09-01 02:15:00,68.3,67.1,29.84,West,277,0.0,0.0,96,0.00,CLR,,0.00,WeatherDisplay:10.37,2013-09-01 06:15:00,
2013-09-01 02:20:00,68.3,67.1,29.84,West,277,0.0,0.0,96,0.00,CLR,,0.00,WeatherDisplay:10.37,2013-09-01 06:20:00,
2013-09-01 02:25:00,68.1,66.9,29.84,WNW,298,0.0,0.0,96,0.00,CLR,,0.00,WeatherDisplay:10.37,2013-09-01 06:25:00,
2013-09-01 02:30:00,68.0,66.8,29.84,NNW,348,0.0,0.0,96,0.00,CLR,,0.00,WeatherDisplay:10.37,2013-09-01 06:30:00,
2013-09-01 02:35:00,68.1,66.9,29.84,North,6,0.0,0.0,96,0.00,CLR,,0.00,WeatherDisplay:10.37,2013-09-01 06:35:00,
2013-09-01 02:40:00,68.1,66.9,29.84,North,6,0.0,0.0,96,0.00,CLR,,0.00,WeatherDisplay:10.37,2013-09-01 06:40:00,
2013-09-01 02:50:00,68.0,66.8,29.84,North,6,0.0,0.0,96,0.00,CLR,,0.00,WeatherDisplay:10.37,2013-09-01 06:50:00,
2013-09-01 02:55:00,68.0,68.0,29.84,North,6,0.0,0.0,100,0.00,CLR,,0.00,WeatherDisplay:10.37,2013-09-01 06:55:00,
2013-09-01 03:00:00,68.0,68.0,29.83,North,6,0.0,0.0,100,0.00,CLR,,0.00,WeatherDisplay:10.37,2013-09-01 07:00:00,
2013-09-01 03:05:00,68.0,68.0,29.83,North,6,0.0,0.0,100,0.00,BKN,,0.00,WeatherDisplay:10.37,2013-09-01 07:05:00,
2013-09-01 03:15:00,67.9,67.9,29.83,North,6,0.0,0.0,100,0.00,BKN,,0.00,WeatherDisplay:10.37,2013-09-01 07:15:00,
2013-09-01 03:25:00,67.8,67.8,29.84,North,6,0.0,0.0,100,0.00,BKN,,0.00,WeatherDisplay:10.37,2013-09-01 07:25:00,
2013-09-01 03:30:00,67.7,67.7,29.84,North,6,0.0,0.0,100,0.00,BKN,,0.00,WeatherDisplay:10.37,2013-09-01 07:30:00,
2013-09-01 03:40:00,67.9,67.9,29.85,North,6,0.0,0.0,100,0.00,BKN,,0.00,WeatherDisplay:10.37,2013-09-01 07:40:00,
2013-09-01 03:45:00,67.8,67.8,29.85,North,6,0.0,0.0,100,0.00,BKN,,0.00,WeatherDisplay:10.37,2013-09-01 07:45:00,
2013-09-01 03:50:00,67.9,67.9,29.85,North,6,0.0,0.0,100,0.00,BKN,,0.00,WeatherDisplay:10.37,2013-09-01 07:50:00,
2013-09-01 03:55:00,67.7,67.7,29.85,North,6,0.0,0.0,100,0.00,BKN,,0.00,WeatherDisplay:10.37,2013-09-01 07:55:00,
2013-09-01 04:00:00,67.7,67.7,29.85,North,6,0.0,0.0,100,0.00,BKN,,0.00,WeatherDisplay:10.37,2013-09-01 08:00:00,
2013-09-01 04:05:00,67.9,65.8,29.85,North,6,0.0,0.0,93,0.00,CLR,,0.00,WeatherDisplay:10.37,2013-09-01 08:05:00,
2013-09-01 04:10:00,67.7,65.6,29.85,North,6,0.0,0.0,93,0.00,CLR,,0.00,WeatherDisplay:10.37,2013-09-01 08:10:00,
2013-09-01 04:15:00,67.7,65.6,29.85,North,6,0.0,0.0,93,0.00,CLR,,0.00,WeatherDisplay:10.37,2013-09-01 08:15:00,
2013-09-01 04:20:00,67.5,65.4,29.85,North,6,0.0,0.0,93,0.00,CLR,,0.00,WeatherDisplay:10.37,2013-09-01 08:20:00,
2013-09-01 04:25:00,67.5,65.4,29.85,North,6,0.0,0.0,93,0.00,CLR,,0.00,WeatherDisplay:10.37,2013-09-01 08:25:00,
2013-09-01 04:30:00,67.4,65.3,29.85,North,6,0.0,0.0,93,0.00,CLR,,0.00,WeatherDisplay:10.37,2013-09-01 08:30:00,
2013-09-01 04:40:00,67.3,65.2,29.85,North,6,0.0,0.0,93,0.00,CLR,,0.00,WeatherDisplay:10.37,2013-09-01 08:40:00,
2013-09-01 04:50:00,67.4,65.3,29.85,North,6,0.0,0.0,93,0.00,CLR,,0.00,WeatherDisplay:10.37,2013-09-01 08:50:00,
2013-09-01 04:55:00,67.4,65.3,29.85,North,6,0.0,0.0,93,0.00,CLR,,0.00,WeatherDisplay:10.37,2013-09-01 08:55:00,
2013-09-01 05:00:00,67.3,65.2,29.85,North,6,0.0,0.0,93,0.00,CLR,,0.00,WeatherDisplay:10.37,2013-09-01 09:00:00,
2013-09-01 05:05:00,67.3,66.1,29.85,North,6,0.0,0.0,96,0.00,CLR,,0.00,WeatherDisplay:10.37,2013-09-01 09:05:00,
2013-09-01 05:10:00,67.4,66.2,29.85,North,6,0.0,0.0,96,0.00,CLR,,0.00,WeatherDisplay:10.37,2013-09-01 09:10:00,
2013-09-01 05:15:00,67.3,66.1,29.86,North,6,0.0,0.0,96,0.00,CLR,,0.00,WeatherDisplay:10.37,2013-09-01 09:15:00,
2013-09-01 05:20:00,67.3,66.1,29.86,North,6,0.0,0.0,96,0.00,CLR,,0.00,WeatherDisplay:10.37,2013-09-01 09:20:00,
2013-09-01 05:25:00,67.2,66.0,29.86,North,6,0.0,0.0,96,0.00,CLR,,0.00,WeatherDisplay:10.37,2013-09-01 09:25:00,
2013-09-01 05:30:00,67.1,65.9,29.86,North,6,0.0,0.0,96,0.00,CLR,,0.00,WeatherDisplay:10.37,2013-09-01 09:30:00,
2013-09-01 05:40:00,67.0,65.8,29.86,North,6,0.0,0.0,96,0.00,CLR,,0.00,WeatherDisplay:10.37,2013-09-01 09:40:00,
2013-09-01 05:50:00,67.1,65.9,29.86,North,6,0.0,0.0,96,0.00,CLR,,0.00,WeatherDisplay:10.37,2013-09-01 09:50:00,
2013-09-01 05:55:00,67.0,65.8,29.86,North,6,0.0,0.0,96,0.00,CLR,,0.00,WeatherDisplay:10.37,2013-09-01 09:55:00,
2013-09-01 06:00:00,67.0,65.8,29.86,North,6,0.0,0.0,96,0.00,CLR,,0.00,WeatherDisplay:10.37,2013-09-01 10:00:00,
2013-09-01 06:05:00,67.1,67.1,29.86,North,6,0.0,0.0,100,0.00,CLR,,0.00,WeatherDisplay:10.37,2013-09-01 10:05:00,
2013-09-01 06:10:00,67.2,67.2,29.86,North,6,0.0,0.0,100,0.00,CLR,,0.00,WeatherDisplay:10.37,2013-09-01 10:10:00,
2013-09-01 06:15:00,66.8,66.8,29.87,North,6,0.0,0.0,100,0.00,CLR,,0.00,WeatherDisplay:10.37,2013-09-01 10:15:00,
2013-09-01 06:20:00,66.8,66.8,29.87,North,6,0.0,0.0,100,0.00,CLR,,0.00,WeatherDisplay:10.37,2013-09-01 10:20:00,
2013-09-01 06:25:00,66.9,66.9,29.87,North,6,0.0,0.0,100,0.00,CLR,,0.00,WeatherDisplay:10.37,2013-09-01 10:25:00,
2013-09-01 06:30:00,66.9,66.9,29.87,North,6,0.0,0.0,100,0.00,CLR,,0.00,WeatherDisplay:10.37,2013-09-01 10:30:00,
2013-09-01 06:35:00,67.0,67.0,29.88,North,6,0.0,0.0,100,0.00,CLR,,0.00,WeatherDisplay:10.37,2013-09-01 10:35:00,
2013-09-01 06:40:00,67.1,67.1,29.88,North,6,0.0,0.0,100,0.00,CLR,,0.00,WeatherDisplay:10.37,2013-09-01 10:40:00,
2013-09-01 06:45:00,67.1,67.1,29.88,North,6,0.0,0.0,100,0.00,CLR,,0.00,WeatherDisplay:10.37,2013-09-01 10:45:00,
2013-09-01 06:50:00,67.2,67.2,29.88,North,6,0.0,0.0,100,0.00,CLR,,0.00,WeatherDisplay:10.37,2013-09-01 10:50:00,
2013-09-01 06:55:00,67.0,67.0,29.88,North,6,0.0,0.0,100,0.00,CLR,,0.00,WeatherDisplay:10.37,2013-09-01 10:55:00,
2013-09-01 07:00:00,67.2,67.2,29.88,North,6,0.0,0.0,100,0.00,CLR,,0.00,WeatherDisplay:10.37,2013-09-01 11:00:00,
2013-09-01 07:05:00,67.3,67.3,29.88,North,6,0.0,0.0,100,0.00,CLR,,0.00,WeatherDisplay:10.37,2013-09-01 11:05:00,
2013-09-01 07:10:00,67.5,67.5,29.89,North,6,0.0,0.0,100,0.00,CLR,,0.00,WeatherDisplay:10.37,2013-09-01 11:10:00,
2013-09-01 07:15:00,67.7,67.7,29.89,North,6,0.0,0.0,100,0.00,CLR,,0.00,WeatherDisplay:10.37,2013-09-01 11:15:00,
2013-09-01 07:20:00,67.5,67.5,29.89,North,6,0.0,0.0,100,0.00,CLR,,0.00,WeatherDisplay:10.37,2013-09-01 11:20:00,
2013-09-01 07:25:00,67.8,67.8,29.89,North,6,0.0,0.0,100,0.00,CLR,,0.00,WeatherDisplay:10.37,2013-09-01 11:25:00,
2013-09-01 07:30:00,67.9,67.9,29.89,North,6,0.0,0.0,100,0.00,CLR,,0.00,WeatherDisplay:10.37,2013-09-01 11:30:00,
2013-09-01 07:35:00,68.1,68.1,29.90,North,6,0.0,0.0,100,0.00,CLR,,0.00,WeatherDisplay:10.37,2013-09-01 11:35:00,
2013-09-01 07:40:00,68.4,68.4,29.90,North,6,0.0,0.0,100,0.00,CLR,,0.00,WeatherDisplay:10.37,2013-09-01 11:40:00,
2013-09-01 07:45:00,68.4,68.4,29.90,North,6,0.0,0.0,100,0.00,CLR,,0.00,WeatherDisplay:10.37,2013-09-01 11:45:00,
2013-09-01 07:50:00,68.5,68.5,29.90,North,6,0.0,0.0,100,0.00,CLR,,0.00,WeatherDisplay:10.37,2013-09-01 11:50:00,
2013-09-01 07:55:00,68.5,68.5,29.90,North,6,0.0,0.0,100,0.00,CLR,,0.00,WeatherDisplay:10.37,2013-09-01 11:55:00,
2013-09-01 08:00:00,68.4,68.4,29.90,North,6,0.0,0.0,100,0.00,CLR,,0.00,WeatherDisplay:10.37,2013-09-01 12:00:00,
2013-09-01 08:05:00,68.5,67.3,29.90,North,6,0.0,0.0,96,0.00,CLR,,0.00,WeatherDisplay:10.37,2013-09-01 12:05:00,
2013-09-01 08:10:00,68.4,67.2,29.90,North,6,0.0,0.0,96,0.00,CLR,,0.00,WeatherDisplay:10.37,2013-09-01 12:10:00,
2013-09-01 08:15:00,68.4,67.2,29.90,North,6,0.0,0.0,96,0.00,CLR,,0.00,WeatherDisplay:10.37,2013-09-01 12:15:00,
2013-09-01 08:20:00,68.5,67.3,29.90,North,6,0.0,0.0,96,0.00,CLR,,0.00,WeatherDisplay:10.37,2013-09-01 12:20:00,
2013-09-01 08:25:00,68.9,67.7,29.91,North,6,0.0,0.0,96,0.00,CLR,,0.00,WeatherDisplay:10.37,2013-09-01 12:25:00,
2013-09-01 08:30:00,69.1,67.9,29.91,North,6,0.0,0.0,96,0.00,CLR,,0.00,WeatherDisplay:10.37,2013-09-01 12:30:00,
2013-09-01 08:35:00,69.4,68.2,29.90,North,6,0.0,0.0,96,0.00,CLR,,0.00,WeatherDisplay:10.37,2013-09-01 12:35:00,
2013-09-01 08:40:00,69.5,68.4,29.91,NW,326,0.0,3.0,96,0.00,CLR,,0.00,WeatherDisplay:10.37,2013-09-01 12:40:00,
2013-09-01 08:45:00,69.5,68.3,29.90,West,270,0.0,0.0,96,0.00,CLR,,0.00,WeatherDisplay:10.37,2013-09-01 12:45:00,
2013-09-01 08:50:00,69.8,68.6,29.90,West,264,0.0,0.0,96,0.00,CLR,,0.00,WeatherDisplay:10.37,2013-09-01 12:50:00,
2013-09-01 08:55:00,70.5,69.3,29.91,West,264,0.0,0.0,96,0.00,CLR,,0.00,WeatherDisplay:10.37,2013-09-01 12:55:00,
2013-09-01 09:00:00,71.2,70.0,29.91,West,264,0.0,0.0,96,0.00,CLR,,0.00,WeatherDisplay:10.37,2013-09-01 13:00:00,
2013-09-01 09:05:00,70.9,66.9,29.90,West,264,0.0,0.0,87,0.00,CLR,,0.00,WeatherDisplay:10.37,2013-09-01 13:05:00,
2013-09-01 09:10:00,71.3,67.2,29.90,West,264,0.0,0.0,87,0.00,CLR,,0.00,WeatherDisplay:10.37,2013-09-01 13:10:00,
2013-09-01 09:15:00,71.6,67.5,29.91,West,264,0.0,0.0,87,0.00,CLR,,0.00,WeatherDisplay:10.37,2013-09-01 13:15:00,
2013-09-01 09:20:00,71.7,67.6,29.91,West,264,0.0,0.0,87,0.00,CLR,,0.00,WeatherDisplay:10.37,2013-09-01 13:20:00,
2013-09-01 09:25:00,72.2,68.1,29.91,West,264,0.0,0.0,87,0.00,CLR,,0.00,WeatherDisplay:10.37,2013-09-01 13:25:00,
2013-09-01 09:30:00,72.9,68.8,29.91,West,264,0.0,0.0,87,0.00,CLR,,0.00,WeatherDisplay:10.37,2013-09-01 13:30:00,
2013-09-01 09:35:00,72.7,68.6,29.90,West,264,0.0,0.0,87,0.00,CLR,,0.00,WeatherDisplay:10.37,2013-09-01 13:35:00,
2013-09-01 09:40:00,73.0,68.9,29.91,West,264,0.0,0.0,87,0.00,CLR,,0.00,WeatherDisplay:10.37,2013-09-01 13:40:00,
2013-09-01 09:45:00,73.4,69.3,29.90,West,264,0.0,0.0,87,0.00,CLR,,0.00,WeatherDisplay:10.37,2013-09-01 13:45:00,
2013-09-01 09:50:00,74.3,70.2,29.90,West,264,0.0,0.0,87,0.00,CLR,,0.00,WeatherDisplay:10.37,2013-09-01 13:50:00,
2013-09-01 09:55:00,75.1,70.9,29.90,West,264,0.0,0.0,87,0.00,CLR,,0.00,WeatherDisplay:10.37,2013-09-01 13:55:00,
2013-09-01 10:05:00,74.5,65.2,29.91,West,264,0.0,0.0,73,0.00,FEW,,0.00,WeatherDisplay:10.37,2013-09-01 14:05:00,
2013-09-01 10:10:00,74.9,65.7,29.91,West,264,0.0,0.0,73,0.00,FEW,,0.00,WeatherDisplay:10.37,2013-09-01 14:10:00,
2013-09-01 10:15:00,75.0,65.8,29.91,West,264,0.0,0.0,73,0.00,FEW,,0.00,WeatherDisplay:10.37,2013-09-01 14:15:00,
2013-09-01 10:20:00,74.2,65.0,29.91,West,264,0.0,0.0,73,0.00,FEW,,0.00,WeatherDisplay:10.37,2013-09-01 14:20:00,
2013-09-01 10:25:00,74.8,65.5,29.91,West,264,0.0,0.0,73,0.00,FEW,,0.00,WeatherDisplay:10.37,2013-09-01 14:25:00,
2013-09-01 10:30:00,75.8,66.5,29.91,West,264,0.0,0.0,73,0.00,FEW,,0.00,WeatherDisplay:10.37,2013-09-01 14:30:00,
2013-09-01 10:35:00,75.4,66.1,29.91,West,264,0.0,0.0,73,0.00,FEW,,0.00,WeatherDisplay:10.37,2013-09-01 14:35:00,
2013-09-01 10:40:00,75.8,66.6,29.91,West,264,0.0,0.0,73,0.00,FEW,,0.00,WeatherDisplay:10.37,2013-09-01 14:40:00,
2013-09-01 10:45:00,76.5,67.2,29.91,West,264,0.0,0.0,73,0.00,FEW,,0.00,WeatherDisplay:10.37,2013-09-01 14:45:00,
2013-09-01 10:50:00,77.5,68.2,29.91,West,264,0.0,0.0,73,0.00,FEW,,0.00,WeatherDisplay:10.37,2013-09-01 14:50:00,
2013-09-01 10:55:00,77.9,68.5,29.91,West,269,1.0,6.0,73,0.00,FEW,,0.00,WeatherDisplay:10.37,2013-09-01 14:55:00,
2013-09-01 11:00:00,78.0,68.7,29.91,West,273,0.0,5.0,73,0.00,FEW,,0.00,WeatherDisplay:10.37,2013-09-01 15:00:00,
2013-09-01 11:10:00,78.2,67.2,29.91,SE,130,0.0,0.0,69,0.00,BKN,,0.00,WeatherDisplay:10.37,2013-09-01 15:10:00,
2013-09-01 11:15:00,79.1,68.1,29.91,SE,130,0.0,0.0,69,0.00,BKN,,0.00,WeatherDisplay:10.37,2013-09-01 15:15:00,
2013-09-01 11:20:00,78.9,67.9,29.91,SE,130,0.0,3.0,69,0.00,BKN,,0.00,WeatherDisplay:10.37,2013-09-01 15:20:00,
2013-09-01 11:25:00,79.0,67.9,29.90,SE,130,0.0,0.0,69,0.00,BKN,,0.00,WeatherDisplay:10.37,2013-09-01 15:25:00,
2013-09-01 11:30:00,78.2,67.2,29.91,SE,130,0.0,0.0,69,0.00,BKN,,0.00,WeatherDisplay:10.37,2013-09-01 15:30:00,
2013-09-01 11:35:00,78.6,67.6,29.90,ESE,105,0.0,3.0,69,0.00,BKN,,0.00,WeatherDisplay:10.37,2013-09-01 15:35:00,
2013-09-01 11:40:00,79.7,68.6,29.90,East,88,0.0,0.0,69,0.00,BKN,,0.00,WeatherDisplay:10.37,2013-09-01 15:40:00,
2013-09-01 11:45:00,79.7,68.7,29.90,East,88,0.0,0.0,69,0.00,BKN,,0.00,WeatherDisplay:10.37,2013-09-01 15:45:00,
2013-09-01 11:50:00,80.5,69.4,29.90,East,88,0.0,2.0,69,0.00,BKN,,0.00,WeatherDisplay:10.37,2013-09-01 15:50:00,
2013-09-01 11:55:00,81.0,69.9,29.90,East,88,0.0,0.0,69,0.00,BKN,,0.00,WeatherDisplay:10.37,2013-09-01 15:55:00,
2013-09-01 12:00:00,81.0,69.9,29.90,East,88,0.0,0.0,69,0.00,BKN,,0.00,WeatherDisplay:10.37,2013-09-01 16:00:00,
2013-09-01 12:05:00,79.2,68.2,29.89,East,96,1.0,5.0,69,0.00,BKN,,0.00,WeatherDisplay:10.37,2013-09-01 16:05:00,
2013-09-01 12:10:00,79.1,68.1,29.89,West,265,0.0,3.0,69,0.00,BKN,,0.00,WeatherDisplay:10.37,2013-09-01 16:10:00,
2013-09-01 12:15:00,79.0,64.9,29.89,West,268,0.0,0.0,62,0.00,FEW,,0.00,WeatherDisplay:10.37,2013-09-01 16:15:00,
2013-09-01 12:20:00,78.9,64.8,29.89,West,268,0.0,0.0,62,0.00,FEW,,0.00,WeatherDisplay:10.37,2013-09-01 16:20:00,
2013-09-01 12:25:00,80.8,66.6,29.89,West,268,0.0,0.0,62,0.00,FEW,,0.00,WeatherDisplay:10.37,2013-09-01 16:25:00,
2013-09-01 12:30:00,80.0,65.8,29.89,West,268,0.0,0.0,62,0.00,FEW,,0.00,WeatherDisplay:10.37,2013-09-01 16:30:00,
2013-09-01 12:35:00,79.0,64.8,29.89,West,268,0.0,0.0,62,0.00,FEW,,0.00,WeatherDisplay:10.37,2013-09-01 16:35:00,
2013-09-01 12:40:00,79.7,65.5,29.88,West,268,0.0,0.0,62,0.00,FEW,,0.00,WeatherDisplay:10.37,2013-09-01 16:40:00,
2013-09-01 12:45:00,80.0,65.8,29.88,WSW,246,0.0,5.0,62,0.00,FEW,,0.00,WeatherDisplay:10.37,2013-09-01 16:45:00,
2013-09-01 12:50:00,80.5,66.2,29.89,WSW,238,1.0,5.0,62,0.00,FEW,,0.00,WeatherDisplay:10.37,2013-09-01 16:50:00,
2013-09-01 12:55:00,81.9,67.6,29.89,WNW,284,1.0,5.0,62,0.00,FEW,,0.00,WeatherDisplay:10.37,2013-09-01 16:55:00,
2013-09-01 13:00:00,83.2,68.8,29.88,WSW,254,0.0,3.0,62,0.00,FEW,,0.00,WeatherDisplay:10.37,2013-09-01 17:00:00,
2013-09-01 13:05:00,81.1,66.8,29.89,WSW,252,0.0,0.0,62,0.00,BKN,,0.00,WeatherDisplay:10.37,2013-09-01 17:05:00,
2013-09-01 13:10:00,80.7,66.4,29.89,WSW,258,0.0,0.0,62,0.00,BKN,,0.00,WeatherDisplay:10.37,2013-09-01 17:10:00,
2013-09-01 13:15:00,79.4,65.2,29.88,WSW,258,0.0,0.0,62,0.00,BKN,,0.00,WeatherDisplay:10.37,2013-09-01 17:15:00,
2013-09-01 13:20:00,78.4,64.3,29.88,WSW,258,0.0,0.0,62,0.00,BKN,,0.00,WeatherDisplay:10.37,2013-09-01 17:20:00,
2013-09-01 13:25:00,77.2,63.2,29.89,WSW,258,0.0,0.0,62,0.00,BKN,,0.00,WeatherDisplay:10.37,2013-09-01 17:25:00,
2013-09-01 13:30:00,76.7,62.7,29.88,WSW,258,0.0,0.0,62,0.00,BKN,,0.00,WeatherDisplay:10.37,2013-09-01 17:30:00,
2013-09-01 13:35:00,76.4,62.4,29.88,WSW,258,0.0,0.0,62,0.00,BKN,,0.00,WeatherDisplay:10.37,2013-09-01 17:35:00,
2013-09-01 13:40:00,76.2,62.2,29.88,WSW,258,0.0,0.0,62,0.00,BKN,,0.00,WeatherDisplay:10.37,2013-09-01 17:40:00,
2013-09-01 13:45:00,76.0,62.0,29.88,WSW,258,0.0,0.0,62,0.00,BKN,,0.00,WeatherDisplay:10.37,2013-09-01 17:45:00,
2013-09-01 13:50:00,75.3,61.4,29.88,WSW,258,0.0,0.0,62,0.00,BKN,,0.00,WeatherDisplay:10.37,2013-09-01 17:50:00,
2013-09-01 13:55:00,74.9,61.0,29.88,WSW,258,0.0,0.0,62,0.00,BKN,,0.00,WeatherDisplay:10.37,2013-09-01 17:55:00,
2013-09-01 14:00:00,74.5,60.6,29.88,WSW,258,0.0,0.0,62,0.01,RA,,0.01,WeatherDisplay:10.37,2013-09-01 18:00:00,
2013-09-01 14:05:00,73.0,59.2,29.88,WSW,258,0.0,0.0,62,0.02,RA,,0.03,WeatherDisplay:10.37,2013-09-01 18:05:00,
2013-09-01 14:10:00,73.2,59.4,29.89,WSW,258,0.0,0.0,62,0.00,RA,,0.03,WeatherDisplay:10.37,2013-09-01 18:10:00,
2013-09-01 14:20:00,73.2,59.4,29.89,WSW,258,0.0,0.0,62,0.12,RA,,0.16,WeatherDisplay:10.37,2013-09-01 18:20:00,
2013-09-01 14:25:00,72.1,58.4,29.89,WSW,258,0.0,0.0,62,0.02,RA,,0.18,WeatherDisplay:10.37,2013-09-01 18:25:00,
2013-09-01 14:30:00,72.6,58.8,29.89,WSW,258,0.0,0.0,62,0.01,RA,,0.19,WeatherDisplay:10.37,2013-09-01 18:30:00,
2013-09-01 14:35:00,72.7,58.9,29.89,WSW,258,0.0,0.0,62,0.00,RA,,0.19,WeatherDisplay:10.37,2013-09-01 18:35:00,
2013-09-01 14:40:00,72.6,58.8,29.89,WSW,258,0.0,0.0,62,0.00,SCT,,0.19,WeatherDisplay:10.37,2013-09-01 18:40:00,
2013-09-01 14:45:00,72.1,58.4,29.89,WSW,258,0.0,0.0,62,0.00,SCT,,0.19,WeatherDisplay:10.37,2013-09-01 18:45:00,
2013-09-01 14:50:00,72.9,59.1,29.89,WSW,258,0.0,0.0,62,0.04,RA,,0.23,WeatherDisplay:10.37,2013-09-01 18:50:00,
2013-09-01 14:55:00,72.1,61.3,29.90,WSW,258,0.0,0.0,69,0.17,RA,,0.40,WeatherDisplay:10.37,2013-09-01 18:55:00,
2013-09-01 15:00:00,70.1,59.5,29.89,WSW,258,0.0,0.0,69,0.14,RA,,0.54,WeatherDisplay:10.37,2013-09-01 19:00:00,
2013-09-01 15:05:00,69.8,63.0,29.89,WSW,258,0.0,0.0,79,0.03,RA,,0.57,WeatherDisplay:10.37,2013-09-01 19:05:00,
2013-09-01 15:10:00,70.1,63.3,29.89,WSW,258,0.0,0.0,79,0.00,RA,,0.57,WeatherDisplay:10.37,2013-09-01 19:10:00,
2013-09-01 15:15:00,70.2,63.4,29.90,WSW,258,0.0,0.0,79,0.00,OVC,,0.57,WeatherDisplay:10.37,2013-09-01 19:15:00,
2013-09-01 15:20:00,70.4,63.6,29.89,WSW,258,0.0,0.0,79,0.00,OVC,,0.57,WeatherDisplay:10.37,2013-09-01 19:20:00,
2013-09-01 15:25:00,70.3,63.5,29.89,WSW,258,0.0,0.0,79,0.03,RA,,0.60,WeatherDisplay:10.37,2013-09-01 19:25:00,
2013-09-01 15:30:00,70.7,63.9,29.88,WSW,258,0.0,0.0,79,0.02,RA,,0.62,WeatherDisplay:10.37,2013-09-01 19:30:00,
2013-09-01 15:35:00,70.7,63.9,29.88,WSW,258,0.0,0.0,79,0.02,RA,,0.64,WeatherDisplay:10.37,2013-09-01 19:35:00,
2013-09-01 15:40:00,70.8,64.0,29.88,WSW,258,0.0,0.0,79,0.02,RA,,0.66,WeatherDisplay:10.37,2013-09-01 19:40:00,
2013-09-01 15:45:00,70.7,63.9,29.88,WSW,258,0.0,0.0,79,0.01,RA,,0.67,WeatherDisplay:10.37,2013-09-01 19:45:00,
2013-09-01 15:50:00,71.4,64.5,29.88,WSW,258,0.0,0.0,79,0.00,RA,,0.67,WeatherDisplay:10.37,2013-09-01 19:50:00,
2013-09-01 15:55:00,72.3,65.4,29.88,WSW,258,0.0,0.0,79,0.00,OVC,,0.67,WeatherDisplay:10.37,2013-09-01 19:55:00,
2013-09-01 16:00:00,71.9,65.0,29.88,WSW,258,0.0,0.0,79,0.01,RA,,0.68,WeatherDisplay:10.37,2013-09-01 20:00:00,
2013-09-01 16:05:00,71.9,65.8,29.88,WSW,258,0.0,0.0,81,0.00,RA,,0.68,WeatherDisplay:10.37,2013-09-01 20:05:00,
2013-09-01 16:10:00,71.9,65.8,29.89,WSW,258,0.0,0.0,81,0.00,BKN,,0.68,WeatherDisplay:10.37,2013-09-01 20:10:00,
2013-09-01 16:15:00,72.1,65.9,29.88,WSW,258,0.0,0.0,81,0.00,BKN,,0.68,WeatherDisplay:10.37,2013-09-01 20:15:00,
2013-09-01 16:20:00,72.0,65.8,29.89,WSW,258,0.0,0.0,81,0.00,BKN,,0.68,WeatherDisplay:10.37,2013-09-01 20:20:00,
2013-09-01 16:25:00,71.9,65.8,29.89,WSW,258,0.0,0.0,81,0.00,BKN,,0.68,WeatherDisplay:10.37,2013-09-01 20:25:00,
2013-09-01 16:35:00,72.3,66.1,29.88,WSW,258,0.0,0.0,81,0.00,BKN,,0.68,WeatherDisplay:10.37,2013-09-01 20:35:00,
2013-09-01 16:40:00,72.0,65.8,29.88,WSW,258,0.0,0.0,81,0.00,BKN,,0.68,WeatherDisplay:10.37,2013-09-01 20:40:00,
2013-09-01 16:45:00,71.8,65.7,29.88,WSW,258,0.0,0.0,81,0.00,BKN,,0.68,WeatherDisplay:10.37,2013-09-01 20:45:00,
2013-09-01 16:50:00,72.0,65.8,29.87,WSW,258,0.0,0.0,81,0.01,RA,,0.69,WeatherDisplay:10.37,2013-09-01 20:50:00,
2013-09-01 16:55:00,72.2,66.1,29.88,WSW,258,0.0,0.0,81,0.00,RA,,0.69,WeatherDisplay:10.37,2013-09-01 20:55:00,
2013-09-01 17:00:00,72.2,66.0,29.88,WSW,258,0.0,0.0,81,0.01,RA,,0.70,WeatherDisplay:10.37,2013-09-01 21:00:00,
2013-09-01 17:05:00,72.1,65.2,29.88,WSW,258,0.0,0.0,79,0.01,RA,,0.71,WeatherDisplay:10.37,2013-09-01 21:05:00,
2013-09-01 17:10:00,72.2,65.3,29.88,WSW,258,0.0,0.0,79,0.00,RA,,0.71,WeatherDisplay:10.37,2013-09-01 21:10:00,
2013-09-01 17:15:00,72.1,65.2,29.89,WSW,258,0.0,0.0,79,0.00,OVC,,0.71,WeatherDisplay:10.37,2013-09-01 21:15:00,
2013-09-01 17:20:00,71.9,65.0,29.88,WSW,258,0.0,0.0,79,0.00,OVC,,0.71,WeatherDisplay:10.37,2013-09-01 21:20:00,
2013-09-01 17:25:00,72.1,65.2,29.89,WSW,258,0.0,0.0,79,0.00,OVC,,0.71,WeatherDisplay:10.37,2013-09-01 21:25:00,
2013-09-01 17:30:00,72.1,65.2,29.89,WSW,258,0.0,0.0,79,0.00,OVC,,0.71,WeatherDisplay:10.37,2013-09-01 21:30:00,
2013-09-01 17:35:00,72.0,61.3,29.89,WSW,258,0.0,0.0,69,0.00,SCT,,0.71,WeatherDisplay:10.37,2013-09-01 21:35:00,
2013-09-01 17:40:00,72.0,61.3,29.89,WSW,258,0.0,0.0,69,0.01,RA,,0.72,WeatherDisplay:10.37,2013-09-01 21:40:00,
2013-09-01 17:45:00,71.8,61.1,29.88,WSW,258,0.0,0.0,69,0.01,RA,,0.73,WeatherDisplay:10.37,2013-09-01 21:45:00,
2013-09-01 17:50:00,71.9,61.2,29.88,WSW,258,0.0,0.0,69,0.02,RA,,0.75,WeatherDisplay:10.37,2013-09-01 21:50:00,
2013-09-01 17:55:00,72.4,61.6,29.88,WSW,258,0.0,0.0,69,0.07,RA,,0.82,WeatherDisplay:10.37,2013-09-01 21:55:00,
2013-09-01 18:00:00,72.2,61.4,29.88,WSW,258,0.0,0.0,69,0.02,RA,,0.84,WeatherDisplay:10.37,2013-09-01 22:00:00,
2013-09-01 18:05:00,72.2,67.1,29.88,WSW,258,0.0,0.0,84,0.00,RA,,0.84,WeatherDisplay:10.37,2013-09-01 22:05:00,
2013-09-01 18:15:00,72.3,67.2,29.88,WSW,258,0.0,0.0,84,0.00,OVC,,0.84,WeatherDisplay:10.37,2013-09-01 22:15:00,
2013-09-01 18:20:00,72.2,67.1,29.88,WSW,258,0.0,0.0,84,0.00,OVC,,0.84,WeatherDisplay:10.37,2013-09-01 22:20:00,
2013-09-01 18:25:00,72.1,67.0,29.88,WSW,258,0.0,0.0,84,0.00,OVC,,0.84,WeatherDisplay:10.37,2013-09-01 22:25:00,
2013-09-01 18:30:00,72.0,66.9,29.88,WSW,258,0.0,0.0,84,0.00,OVC,,0.84,WeatherDisplay:10.37,2013-09-01 22:30:00,
2013-09-01 18:35:00,71.9,66.8,29.88,WSW,258,0.0,0.0,84,0.00,OVC,,0.84,WeatherDisplay:10.37,2013-09-01 22:35:00,
2013-09-01 18:40:00,71.9,66.8,29.88,WSW,258,0.0,0.0,84,0.00,OVC,,0.84,WeatherDisplay:10.37,2013-09-01 22:40:00,
2013-09-01 18:45:00,71.8,66.7,29.88,WSW,258,0.0,0.0,84,0.00,OVC,,0.84,WeatherDisplay:10.37,2013-09-01 22:45:00,
2013-09-01 18:55:00,72.0,66.5,29.89,WSW,258,0.0,0.0,83,0.00,BKN,,0.84,WeatherDisplay:10.37,2013-09-01 22:55:00,
2013-09-01 19:00:00,72.0,66.6,29.89,WSW,258,0.0,0.0,83,0.00,BKN,,0.84,WeatherDisplay:10.37,2013-09-01 23:00:00,
2013-09-01 19:05:00,71.9,66.8,29.89,WSW,258,0.0,0.0,84,0.00,BKN,,0.84,WeatherDisplay:10.37,2013-09-01 23:05:00,
2013-09-01 19:10:00,71.3,66.2,29.89,WSW,258,0.0,0.0,84,0.00,BKN,,0.84,WeatherDisplay:10.37,2013-09-01 23:10:00,
2013-09-01 19:15:00,70.6,65.6,29.89,WSW,258,0.0,0.0,84,0.00,BKN,,0.84,WeatherDisplay:10.37,2013-09-01 23:15:00,
2013-09-01 19:20:00,70.9,65.8,29.89,WSW,258,0.0,0.0,84,0.00,BKN,,0.84,WeatherDisplay:10.37,2013-09-01 23:20:00,
2013-09-01 19:25:00,70.6,65.5,29.89,WSW,258,0.0,0.0,84,0.00,BKN,,0.84,WeatherDisplay:10.37,2013-09-01 23:25:00,
2013-09-01 19:30:00,70.4,65.3,29.89,WSW,258,0.0,0.0,84,0.00,BKN,,0.84,WeatherDisplay:10.37,2013-09-01 23:30:00,
2013-09-01 19:35:00,70.5,65.4,29.90,WSW,258,0.0,0.0,84,0.00,BKN,,0.84,WeatherDisplay:10.37,2013-09-01 23:35:00,
2013-09-01 19:40:00,70.5,65.4,29.90,WSW,258,0.0,0.0,84,0.00,BKN,,0.84,WeatherDisplay:10.37,2013-09-01 23:40:00,
2013-09-01 19:45:00,70.1,65.0,29.90,WSW,258,0.0,0.0,84,0.00,BKN,,0.84,WeatherDisplay:10.37,2013-09-01 23:45:00,
2013-09-01 19:50:00,70.3,65.2,29.89,WSW,258,0.0,0.0,84,0.00,BKN,,0.84,WeatherDisplay:10.37,2013-09-01 23:50:00,
2013-09-01 19:55:00,70.0,68.2,29.89,WSW,258,0.0,0.0,94,0.00,-RA,,0.84,WeatherDisplay:10.37,2013-09-01 23:55:00,
2013-09-01 20:00:00,69.8,68.0,29.89,WSW,258,0.0,0.0,94,0.00,-RA,,0.84,WeatherDisplay:10.37,2013-09-02 00:00:00,
2013-09-01 20:05:00,70.1,68.0,29.90,WSW,258,0.0,0.0,93,0.00,-RA,,0.84,WeatherDisplay:10.37,2013-09-02 00:05:00,
2013-09-01 20:10:00,69.9,67.7,29.90,WSW,258,0.0,0.0,93,0.00,-RA,,0.84,WeatherDisplay:10.37,2013-09-02 00:10:00,
2013-09-01 20:15:00,69.4,67.3,29.90,WSW,258,0.0,0.0,93,0.00,-RA,,0.84,WeatherDisplay:10.37,2013-09-02 00:15:00,
2013-09-01 20:20:00,69.5,67.4,29.90,WSW,258,0.0,0.0,93,0.00,-RA,,0.84,WeatherDisplay:10.37,2013-09-02 00:20:00,
2013-09-01 20:25:00,69.6,67.5,29.90,WSW,258,0.0,0.0,93,0.00,-RA,,0.84,WeatherDisplay:10.37,2013-09-02 00:25:00,
2013-09-01 20:30:00,69.8,67.7,29.91,WSW,258,0.0,0.0,93,0.00,-RA,,0.84,WeatherDisplay:10.37,2013-09-02 00:30:00,
2013-09-01 20:35:00,69.6,67.4,29.90,WSW,258,0.0,0.0,93,0.00,-RA,,0.84,WeatherDisplay:10.37,2013-09-02 00:35:00,
2013-09-01 20:40:00,69.5,67.4,29.91,WSW,258,0.0,0.0,93,0.00,-RA,,0.84,WeatherDisplay:10.37,2013-09-02 00:40:00,
2013-09-01 20:45:00,69.7,67.6,29.91,WSW,258,0.0,0.0,93,0.00,-RA,,0.84,WeatherDisplay:10.37,2013-09-02 00:45:00,
2013-09-01 20:55:00,69.5,67.4,29.91,WSW,258,0.0,0.0,93,0.00,-RA,,0.84,WeatherDisplay:10.37,2013-09-02 00:55:00,
2013-09-01 21:00:00,69.4,67.3,29.91,WSW,258,0.0,0.0,93,0.00,-RA,,0.84,WeatherDisplay:10.37,2013-09-02 01:00:00,
2013-09-01 21:05:00,69.3,67.2,29.91,WSW,258,0.0,0.0,93,0.00,BKN,,0.84,WeatherDisplay:10.37,2013-09-02 01:05:00,
2013-09-01 21:10:00,69.4,67.3,29.91,WSW,258,0.0,0.0,93,0.00,BKN,,0.84,WeatherDisplay:10.37,2013-09-02 01:10:00,
2013-09-01 21:15:00,69.4,67.3,29.91,WSW,258,0.0,0.0,93,0.00,BKN,,0.84,WeatherDisplay:10.37,2013-09-02 01:15:00,
2013-09-01 21:20:00,69.4,67.3,29.91,WSW,258,0.0,0.0,93,0.00,BKN,,0.84,WeatherDisplay:10.37,2013-09-02 01:20:00,
2013-09-01 21:25:00,69.4,67.3,29.91,WSW,258,0.0,0.0,93,0.00,BKN,,0.84,WeatherDisplay:10.37,2013-09-02 01:25:00,
2013-09-01 21:30:00,69.5,67.4,29.91,WSW,258,0.0,0.0,93,0.00,BKN,,0.84,WeatherDisplay:10.37,2013-09-02 01:30:00,
2013-09-01 21:35:00,69.3,67.5,29.90,WSW,258,0.0,0.0,94,0.00,OVC,,0.84,WeatherDisplay:10.37,2013-09-02 01:35:00,
2013-09-01 21:40:00,69.1,67.3,29.91,WSW,258,0.0,0.0,94,0.00,OVC,,0.84,WeatherDisplay:10.37,2013-09-02 01:40:00,
2013-09-01 21:45:00,69.0,67.2,29.91,WSW,258,0.0,0.0,94,0.00,OVC,,0.84,WeatherDisplay:10.37,2013-09-02 01:45:00,
2013-09-01 21:50:00,68.9,67.1,29.91,WSW,258,0.0,0.0,94,0.00,OVC,,0.84,WeatherDisplay:10.37,2013-09-02 01:50:00,
2013-09-01 21:55:00,69.0,67.2,29.91,WSW,258,0.0,0.0,94,0.00,OVC,,0.84,WeatherDisplay:10.37,2013-09-02 01:55:00,
2013-09-01 22:00:00,69.1,67.3,29.91,WSW,258,0.0,0.0,94,0.00,OVC,,0.84,WeatherDisplay:10.37,2013-09-02 02:00:00,
2013-09-01 22:05:00,69.5,69.5,29.91,WSW,258,0.0,0.0,100,0.00,OVC,,0.84,WeatherDisplay:10.37,2013-09-02 02:05:00,
2013-09-01 22:10:00,69.2,69.2,29.91,WSW,258,0.0,0.0,100,0.00,OVC,,0.84,WeatherDisplay:10.37,2013-09-02 02:10:00,
2013-09-01 22:15:00,69.2,69.2,29.91,WSW,258,0.0,0.0,100,0.00,OVC,,0.84,WeatherDisplay:10.37,2013-09-02 02:15:00,
2013-09-01 22:20:00,69.1,69.1,29.91,WSW,258,0.0,0.0,100,0.00,OVC,,0.84,WeatherDisplay:10.37,2013-09-02 02:20:00,
2013-09-01 22:25:00,69.3,69.3,29.91,WSW,258,0.0,0.0,100,0.00,OVC,,0.84,WeatherDisplay:10.37,2013-09-02 02:25:00,
2013-09-01 22:30:00,69.5,69.5,29.92,WSW,258,0.0,0.0,100,0.00,OVC,,0.84,WeatherDisplay:10.37,2013-09-02 02:30:00,
2013-09-01 22:35:00,69.6,69.6,29.92,WSW,258,0.0,0.0,100,0.00,OVC,,0.84,WeatherDisplay:10.37,2013-09-02 02:35:00,
2013-09-01 22:40:00,69.3,69.3,29.92,WSW,258,0.0,0.0,100,0.00,OVC,,0.84,WeatherDisplay:10.37,2013-09-02 02:40:00,
2013-09-01 22:45:00,69.2,67.4,29.92,WSW,258,0.0,0.0,94,0.00,OVC,,0.84,WeatherDisplay:10.37,2013-09-02 02:45:00,
2013-09-01 22:50:00,69.4,67.6,29.92,WSW,258,0.0,0.0,94,0.00,OVC,,0.84,WeatherDisplay:10.37,2013-09-02 02:50:00,
2013-09-01 22:55:00,69.2,67.4,29.92,WSW,258,0.0,0.0,94,0.00,OVC,,0.84,WeatherDisplay:10.37,2013-09-02 02:55:00,
2013-09-01 23:00:00,69.1,67.3,29.92,WSW,258,0.0,0.0,94,0.00,OVC,,0.84,WeatherDisplay:10.37,2013-09-02 03:00:00,
2013-09-01 23:05:00,69.0,69.0,29.92,WSW,258,0.0,0.0,100,0.00, +RA,,0.84,WeatherDisplay:10.37,2013-09-02 03:05:00,
2013-09-01 23:10:00,69.1,69.1,29.92,WSW,258,0.0,0.0,100,0.00, +RA,,0.84,WeatherDisplay:10.37,2013-09-02 03:10:00,
2013-09-01 23:15:00,69.1,69.1,29.92,WSW,258,0.0,0.0,100,0.00,-RA,,0.84,WeatherDisplay:10.37,2013-09-02 03:15:00,
2013-09-01 23:20:00,69.2,69.2,29.92,WSW,258,0.0,0.0,100,0.00,-RA,,0.84,WeatherDisplay:10.37,2013-09-02 03:20:00,
2013-09-01 23:25:00,69.0,69.0,29.92,WSW,258,0.0,0.0,100,0.00,-RA,,0.84,WeatherDisplay:10.37,2013-09-02 03:25:00,
2013-09-01 23:30:00,69.0,69.0,29.92,WSW,258,0.0,0.0,100,0.00,-RA,,0.84,WeatherDisplay:10.37,2013-09-02 03:30:00,
2013-09-01 23:35:00,69.2,69.2,29.92,WSW,258,0.0,0.0,100,0.00,-RA,,0.84,WeatherDisplay:10.37,2013-09-02 03:35:00,
2013-09-01 23:40:00,68.9,68.9,29.92,WSW,258,0.0,0.0,100,0.00,-RA,,0.84,WeatherDisplay:10.37,2013-09-02 03:40:00,
2013-09-01 23:45:00,69.2,69.2,29.92,WSW,258,0.0,0.0,100,0.00,-RA,,0.84,WeatherDisplay:10.37,2013-09-02 03:45:00,
2013-09-01 23:50:00,69.1,69.1,29.92,WSW,258,0.0,0.0,100,0.00,-RA,,0.84,WeatherDisplay:10.37,2013-09-02 03:50:00,
2013-09-01 23:55:00,69.0,69.0,29.92,WSW,258,0.0,0.0,100,0.00,-RA,,0.84,WeatherDisplay:10.37,2013-09-02 03:55:00,